User: anonymous   Login
Location: Unspecified
(0.0000°N, 0.0000°E)
Time: 05:09:45
(UTC+00:00)
Language:

DSP F5R - Orbit

View from above orbital plane
View from above orbital plane
View from above satellite
View from above satellite

Ground track
Ground track

The orbit data is extracted from the following two-line orbital elements,

1 18583U 87097A   19324.63525191 -.00000010  00000-0  00000+0 0  9998
2 18583  14.1440 354.8658 0022927 228.8565 313.1552  0.98385175  1094
Epoch (UTC): 20 November 2019 15:14:45
Eccentricity: 0.0022927
inclination: 14.1440°
perigee height: 36225 km
apogee height: 36421 km
right ascension of ascending node: 354.8658°
argument of perigee: 228.8565°
revolutions per day: 0.98385175
mean anomaly at epoch: 313.1552°
orbit number at epoch: 109

The dashed part of the orbit path shows where the satellite is in the earth's shadow,  

DLR